Regional Weather Roundup
Issued by NWS

Home | Current Version | Previous Version | Graphics & Text | Print | Product List | Glossary Off
Versions: 1 2 3 4 5 6 7 8 9 10 11 12 13 14 15 16 17 18 19 20 21 22 23 24 25 26 27 28 29 30 31 32 33 34 35 36 37 38 39 40 41 42 43 44 45 46 47 48 49 50

000
ASUS43 KMKX 190921
RWRWI

WISCONSIN REGIONAL WEATHER ROUNDUP
NATIONAL WEATHER SERVICE MILWAUKEE/SULLIVAN WI
400 AM CDT SUN APR 19 2015

NOTE: "FAIR" INDICATES FEW OR NO CLOUDS BELOW 12,000 FEET WITH NO
SIGNIFICANT WEATHER AND/OR OBSTRUCTIONS TO VISIBILITY.

WIZ001-002-006>008-014>016-023>028-191000-
NORTHWEST WISCONSIN

CITY           SKY/WX    TMP DP  RH WIND       PRES   REMARKS
SUPERIOR ARPT  LGT RAIN  37  35  93 E14G22    29.87F WCI  28
ASHLAND        LGT RAIN  40  38  93 NE6       29.94F
HAYWARD        LGT RAIN  44  32  62 SE12      29.86F
SIREN          LGT RAIN  46  34  61 SE12G18   29.81F
CUMBERLAND     LGT RAIN  43  32  65 E12G17    29.83F
RICE LAKE      DRIZZLE   44  34  66 E13G23    29.86F
CHETEK         LGT RAIN  45  36  71 E9        29.86F
LADYSMITH      RAIN      44  35  71 E9        29.90F
EAU CLAIRE     CLOUDY    46  34  62 E7        29.85F
MENOMONIE      CLOUDY    46  35  64 E9        29.84F
NEW RICHMOND   DRIZZLE   46  35  63 SE9       29.79F
OSCEOLA        LGT RAIN  47  37  68 SE13G18   29.82F
$$

WIZ003>005-009-010-017-018-191000-
NORTH CENTRAL WISCONSIN

CITY           SKY/WX    TMP DP  RH WIND       PRES   REMARKS
MANITOWISH WTR CLOUDY    44  27  50 S9        29.94S
ARBOR VITAE    CLOUDY    44  27  51 SE10G16   29.94S HAZE
WOODRUFF       CLOUDY    44  27  51 SE10G16   29.94S HAZE
RHINELANDER    MOCLDY    43  26  51 SE10      29.95F
EAGLE RIVER    CLOUDY    41  25  52 SE9       29.95F
LAND O LAKES   MOCLDY    42  26  53 SE12      29.96F
PHILLIPS       CLOUDY    48  28  45 SE7       29.93F
TOMAHAWK       CLOUDY    45  25  44 CALM      29.96R
MEDFORD        RAIN      42  33  71 E7        29.92F
MERRILL        MOCLDY    47  24  40 CALM      29.96R
$$

WIZ029-030-035-036-043>047-191000-
CENTRAL WISCONSIN

CITY           SKY/WX    TMP DP  RH WIND       PRES   REMARKS
WAUSAU         CLOUDY    46  23  40 SE13      29.93F
MOSINEE        CLOUDY    45  23  42 SE7       29.95R
MARSHFIELD     CLOUDY    46  34  62 E8        29.91F
STEVENS POINT  CLOUDY    45  24  44 E14       29.93F
WAUPACA        CLOUDY    47  26  44 E6        29.96F
WAUTOMA        CLOUDY    47  29  50 NE5       29.94F
WISC RAPIDS    CLOUDY    48  24  39 E8        29.92F
CAMP DOUGLAS   MOCLDY    45  32  61 E8        29.87F
$$

WIZ011>013-019>022-031-037>040-048>050-191000-
NORTHEAST WISCONSIN

CITY           SKY/WX    TMP DP  RH WIND       PRES   REMARKS
ANTIGO         MOCLDY    41  26  57 SE15G25   29.95F
SHAWANO        MOCLDY    44  32  63 E8        29.99F
OCONTO         PTCLDY    43  27  53 SE6       30.01F
STURGEON BAY   PTCLDY    43  25  49 E10       30.03F
GREEN BAY      PTCLDY    46  25  43 E8        29.99F
MANITOWOC      PTCLDY    40  30  67 E5        30.01F
APPLETON       MOCLDY    46  21  36 E12G17    29.96F
CLINTONVILLE   CLOUDY    43  30  61 E7        29.97F
OSHKOSH        MOCLDY    50  25  37 SE10      29.94F
$$

WIZ032>034-041-042-053>061-191000-
SOUTHWEST WISCONSIN

CITY           SKY/WX    TMP DP  RH WIND       PRES   REMARKS
LA CROSSE      CLOUDY    52  33  48 E10       29.84F
SPARTA         CLOUDY    46  35  67 CALM      29.88S
VIROQUA        CLOUDY    49  31  50 E9        29.84F
BOSCOBEL       CLOUDY    52  33  48 NE3       29.86F
PRAIRIE DU CHI CLOUDY    55  32  42 E5        29.84S
PLATTEVILLE    CLOUDY    51  37  57 E13       29.84F
$$

WIZ056-057-062-063-064-067-068-191000-
SOUTH CENTRAL WISCONSIN

CITY           SKY/WX    TMP DP  RH WIND       PRES   REMARKS
REEDSBURG      CLOUDY    50  31  48 E7        29.87F
BARABOO/DELLS  CLOUDY    49  28  45 NE8       29.88F
LONE ROCK      CLOUDY    52  32  46 E12       29.86F
MINERAL POINT  MOCLDY    52  32  46 E9        29.85F
MADISON        PTCLDY    50  31  48 E9        29.89F
MIDDLETON      PTCLDY    52  32  46 E7        29.89F
WATERTOWN      MOCLDY    49  31  48 E10       29.91F
MONROE         PTCLDY    50  36  57 E8        29.86F
JANESVILLE     MOCLDY    52  30  43 E9        29.88F
$$

WIZ051-052-058>065-066-070>072-191000-
SOUTHEAST WISCONSIN

CITY           SKY/WX    TMP DP  RH WIND       PRES   REMARKS
MILWAUKEE      CLOUDY    46  29  51 E14       29.96F
WAUKESHA       CLOUDY    45  28  53 E9        29.95F
MILWAUKEE/TIMM CLOUDY    45  28  53 E9        29.98S
RACINE         CLOUDY    45  32  60 E9        29.96F
BURLINGTON     MOCLDY    46  31  56 E8        29.93F
KENOSHA        CLOUDY    46  31  55 E10       29.94F
FOND DU LAC    MOCLDY    49  25  39 SE18G25   29.94F
SHEBOYGAN      MOCLDY    44  29  55 SE6       30.00F
WEST BEND      MOCLDY    45  28  53 E12       29.97F
JUNEAU         MOCLDY    48  28  45 E13G20    29.93F
$$

LSZ147-162-191000-
LAKE SUPERIOR

STATION/POSITION TIME  TEMP    WIND        PRES    WAVE
                       AIR SEA DIR/SP/G            HT/PER
                 (UTC) (F)     (DEG/KT/KT) (MB)    (FT/S)
DEVILS ISLAND    0900   37      80/  8/  9 1015.5F
PORT WING        0900   37      50/ 11/ 18 1013.2
SAXON HARBOR     0800   42     300/  8/ 10 1014.2S
$$

LMZ867-665-643>646-191000-
LAKE MICHIGAN

STATION/POSITION TIME  TEMP    WIND        PRES    WAVE
                       AIR SEA DIR/SP/G            HT/PER
                 (UTC) (F)     (DEG/KT/KT) (MB)    (FT/S)
CHAMBERS ISLAND  0800   44      80/  6/  8 1017.3F
NORTHPORT PIER   0901   40     100/ 11/ 12 1017.3F
SISTER BAY       0702   43     130/  9/ 13   N/A
KEWAUNEE LAKESHO 0800   43      50/  6/  8 1016.1F
SHEBOYGAN LAKESH 0900   43     150/  5/  7 1016.5F
PORT WASHINGTON  0800   45      90/  6/ 10 1016.6
MILWAUKEE LAKESH 0900   43      70/ 10/ 11   N/A
KENOSHA   LAKESH 0900   44      90/  9/ 10 1013.9F
$$

TC  - TEMPERATURE IN CELSIUS
VSB - VISIBILITY IN STATUTE MILES
WCI - WIND CHILL INDEX
HX  - HEAT INDEX



USA.gov is the U.S. government's official web portal to all federal, state and local government web resources and services.